Regional Weather Roundup
Issued by NWS

Home | Current Version | Previous Version | Graphics & Text | Print | Product List | Glossary On
Versions: 1 2 3 4 5 6 7 8 9 10 11 12 13 14 15 16 17 18 19 20 21 22 23 24 25 26 27 28 29 30 31 32 33 34 35 36 37 38 39 40 41 42 43 44 45 46 47 48
000
ASUS45 KTFX 290410
RWRMT
MONTANA REGIONAL WEATHER ROUNDUP
NATIONAL WEATHER SERVICE GREAT FALLS MT
1000 PM MDT SUN JUN 28 2015

NOTE: "FAIR" INDICATES FEW OR NO CLOUDS BELOW 12000 FEET WITH NO
SIGNIFICANT WEATHER AND/OR OBSTRUCTIONS TO VISIBILITY.

MTZ001>007-043-290500-
WEST OF THE DIVIDE

CITY           SKY/WX    TMP DP  RH WIND       PRES   REMARKS
KALISPELL      PTCLDY    82  54  37 NW3       29.96R
MISSOULA       PTCLDY    89  43  20 CALM      29.97R
BUTTE          CLEAR     84  40  21 E16G25    30.19R
MULLAN PASS    MOCLDY    80  41  24 N3        30.22S
DEER LODGE       N/A     81  45  28 NW5       30.16R
EUREKA           N/A     82  52  34 CALM      29.94R
HAMILTON         N/A     79  59  50 S2        30.00R
PLAINS           N/A     84  58  41 CALM      29.93R
RONAN            N/A     77  53  43 CALM      30.02S
$$

MTZ008-052>055-290500-
SOUTHWEST MONTANA

CITY           SKY/WX    TMP DP  RH WIND       PRES   REMARKS
BOZEMAN        CLEAR     82  47  29 SE13G18   30.12R
DILLON         CLEAR     77  45  32 E10       30.13R
W YELLOWSTONE  PTCLDY    63  48  59 CALM      30.30R
THREE FORKS      N/A     76  62  61 CALM      30.09R
TWIN BRIDGES     N/A     77  44  30 SW2       30.11R
$$

MTZ009-010-012-014-046-048-049-054-290500-
EAST SLOPES AND CENTRAL MONTANA

CITY           SKY/WX    TMP DP  RH WIND       PRES   REMARKS
CUT BANK       CLEAR     76  48  37 N10       30.11R
GREAT FALLS    CLEAR     83  42  23 NE10      30.07R
MALMSTROM AFB  CLEAR     79  46  31 NE9       30.07R
HELENA         CLEAR     87  47  24 SW5       30.07R
CONRAD           N/A     75  62  64 CALM      30.11S
$$

MTZ011-013-016-021-045-047-050-051-290500-
NORTH CENTRAL MONTANA

CITY           SKY/WX    TMP DP  RH WIND       PRES   REMARKS
HAVRE          CLEAR     85  47  26 N8        29.99R
CHINOOK          N/A     79  59  50 SW3       29.99R
FORT BENTON      N/A     84  41  21 N6        30.03R
$$

MTZ017>020-022>027-061-062-290500-
NORTHEAST MONTANA

CITY           SKY/WX    TMP DP  RH WIND       PRES   REMARKS
GLASGOW        CLEAR     77  55  46 E9        29.97R
JORDAN           N/A     82  55  39 E8        30.00R
SIDNEY         CLEAR     72  55  56 CALM      29.99R
WOLF POINT     CLEAR     74  60  61 CALM      29.97R
MALTA            N/A     79  59  50 CALM      29.94R
PLENTYWOOD       N/A     73  55  53 NE6       29.99S
POPLAR           N/A     73  59  60 E6        29.98R
SCOBEY           N/A     71  51  49 N3        30.00R
$$

MTZ028>42-056>058-290500-
SOUTHCENTRAL AND SOUTHEAST MONTANA

CITY           SKY/WX    TMP DP  RH WIND       PRES   REMARKS
BAKER          CLEAR     70  60  70 SE3       30.05R
BILLINGS       PTCLDY    84  49  29 W5        30.07R
LIVINGSTON     CLEAR     78  49  35 SE8       30.15R
MILES CITY     CLEAR     79  56  45 NE9       29.99R
BIG TIMBER       N/A     79  52  38 N5        30.16R
EKALAKA          N/A     73  57  57 SE8       30.05R
FORSYTH          N/A     82  55  39 N5        29.99R
LAUREL           N/A     78  49  36 CALM      30.07R
ROUNDUP          N/A     83  46  27 CALM      29.99R
$$

REGIONAL REPORTS...DAKOTAS

CITY           SKY/WX    TMP DP  RH WIND       PRES   REMARKS
WILLISTON      CLEAR     71  56  58 CALM      29.98R
MINOT          CLEAR     68  61  78 SW7       29.94S
DICKINSON      CLEAR     64  58  80 S7        30.00S
BEACH          FAIR      66  63  88 CALM      30.05R
CROSBY         FAIR      66  66 100 W5        29.98R
BISMARCK       CLEAR     67  60  78 CALM      29.97R
GRAND FORKS    CLEAR     65  62  90 W5        29.84R
FARGO          CLEAR     70  61  73 W5        29.85S
BUFFALO SD       N/A     70  58  65 E7        30.00R
RAPID CITY     CLEAR     68  61  78 CALM      30.06S
$$

REGIONAL REPORTS...WYOMING/IDAHO/WASHINGTON

CITY           SKY/WX    TMP DP  RH WIND       PRES   REMARKS
GILLETTE       PTCLDY    70  57  63 S3        30.12R
SHERIDAN       CLEAR     67  59  75 SW7       30.09S
BUFFALO WY     PTCLDY    71  54  54 W9        30.18R
CODY           PTCLDY    75  52  43 SW5       30.21R
YELLOWSTONE LA   N/A     67  46  47 CALM      30.44R
IDAHO FALLS    MOCLDY    72  63  73 CALM      30.08R
SALMON           N/A     81  48  32 S6        29.99R
BOISE          MOCLDY    95  55  26 CALM      29.83F HX  93
SPOKANE        CLOUDY    95  50  21 NE6       29.87F HX  92
$$

REGIONAL REPORTS...ALBERTA

CITY           SKY/WX    TMP DP  RH WIND       PRES   REMARKS
EDMONTON       CLEAR     72  52  49 E2        30.03R
CALGARY        PTCLDY    75  54  46 E10       30.12R
LETHBRIDGE     PTCLDY    73  63  68 S6        30.07R
MEDICINE HAT   CLEAR     86  46  25 N10       30.01R
WATERTON GATE    N/A     68  61  77 CALM        N/A
CARDSTON         N/A     75  63  64 S1          N/A
ONEFOUR          N/A     77  45  31 N9          N/A
$$

REGIONAL REPORTS...SASKATCHEWAN

CITY           SKY/WX    TMP DP  RH WIND       PRES   REMARKS
SWIFT CURRENT  CLEAR     73  63  68 S8        30.00R
REGINA         MOCLDY    75  55  50 E2        29.95F
SASKATOON      PTCLDY    68  63  83 SW6       29.95R
CYPRESS HILLS    N/A     73  45  35 NW3         N/A
VAL MARIE        N/A     72  54  53 NE6         N/A
ROCKGLEN         N/A     73  52  46 E3          N/A
ASSINIBOIA       N/A     70  54  56 NW2         N/A
$$



USA.gov is the U.S. government's official web portal to all federal, state and local government web resources and services.